Location: Pine Mountain Observatory
(43.7910°N, 120.9377°W)
Time: 10:14:28
(UTC-08:00)

APEX - Visible Passes

Search period start: 22 January 2017 00:00
Search period end: 01 February 2017 00:00
Orbit: 336 x 1209 km, 69.9° (Epoch: 22 January)

Date Brightness Start Highest point End Pass type
(mag) Time Alt. Az. Time Alt. Az. Time Alt. Az.
22 Jan 2.8 06:34:16 10° SW 06:37:52 55° WNW 06:40:51 10° NNE visible
23 Jan 3.0 05:58:16 10° SSW 06:01:56 73° ESE 06:04:58 10° NNE visible
24 Jan 4.4 05:22:37 10° S 05:25:59 35° ESE 05:28:49 10° NE visible
25 Jan 5.5 04:49:34 18° ESE 04:50:03 19° ESE 04:52:20 10° ENE visible
25 Jan 4.0 06:30:07 11° WSW 06:32:28 21° WNW 06:34:49 10° N visible
26 Jan 3.3 05:56:52 36° NW 05:56:52 36° NW 05:59:13 10° N visible
27 Jan 5.1 05:22:45 15° NNE 05:22:45 15° NNE 05:23:21 10° NNE visible
